Regional Weather Roundup
Issued by NWS Upton, NY

Current Version | Previous Version | Text Only | Print | Product List | Glossary On
Versions: 1 2 3 4 5 6 7 8 9 10 11 12 13 14 15 16 17 18 19 20 21 22 23 24 25 26 27 28 29 30 31 32 33 34 35 36 37 38 39 40 41 42 43 44 45 46 47 48 49 50
000
ASUS41 KOKX 241107
RWROKX

REGIONAL WEATHER ROUNDUP
NATIONAL WEATHER SERVICE NEW YORK NY
700 AM EDT FRI APR 24 2015

NOTE: "FAIR" INDICATES FEW OR NO CLOUDS BELOW 12,000 FEET WITH NO
SIGNIFICANT WEATHER AND/OR OBSTRUCTIONS TO VISIBILITY.

NYZ071-072-176-178-NJZ106-104-241200-
NEW YORK CITY METRO AREA


CITY           SKY/WX    TMP DP  RH WIND       PRES   REMARKS
CENTRAL PARK   CLOUDY    39  19  44 VRB7      29.90R WCI  34
LAGUARDIA APRT MOCLDY    40  21  46 NW15G26   29.87R WCI  32
KENNEDY INTL   MOCLDY    40  19  43 NW22G32   29.88R WCI  30
NEWARK/LIBERTY MOCLDY    39  21  48 NW16G23   29.89R WCI  30
BRNX BOT. GARD   N/A     37  19  48 NW10      29.89R WCI  30
TETERBORO      CLOUDY    38  20  48 NW18G28   29.88R WCI  28
$$

NYZ177-179-078>081-241200-
LONG ISLAND NEW YORK

CITY           SKY/WX    TMP DP  RH WIND       PRES   REMARKS
FARMINGDALE    MOCLDY    39  22  50 NW14G20   29.85R WCI  31
ISLIP          MOSUNNY   39  22  50 NW15G21   29.82R WCI  31
SHIRLEY        SUNNY     39  23  52 NW12G20   29.84R WCI  32
WESTHAMPTON    SUNNY     39  22  50 NW15G22   29.83R WCI  31
MONTAUK POINT    N/A     41  24  51 NW14G22   29.81R
$$

NYZ052-065-067-241200-
HUDSON VALLEY

CITY           SKY/WX    TMP DP  RH WIND       PRES   REMARKS
WHITE PLAINS   PTCLDY    37  21  52 W22G30    29.83R WCI  26
NEWBURGH       MOCLDY    36  21  55 NW18G24   29.86R WCI  25
MONTGOMERY     CLOUDY   N/A N/A N/A NW22G31   29.86R
POUGHKEEPSIE   CLOUDY    38  19  46 NW9       29.85R WCI  31
ALBANY         MOCLDY    35  22  58 W15G23    29.85R WCI  25
$$

NJZ001-105-106-008-010-013-015-019>022-104-241200-
NEW JERSEY

CITY           SKY/WX    TMP DP  RH WIND       PRES   REMARKS
NEWARK/LIBERTY MOCLDY    39  21  48 NW16G23   29.89R WCI  30
TETERBORO      CLOUDY    38  20  48 NW18G28   29.88R WCI  28
CALDWELL       CLOUDY    37  20  50 NW9G18    29.89R WCI  30
MORRISTOWN     CLOUDY    39  21  48 W5G17     29.89R
SOMERVILLE     CLOUDY    38  19  46 NW15G23   29.90R WCI  29
SUSSEX         CLOUDY    36  20  52 VRB5      29.89R WCI  32
ANDOVER          N/A     35  19  52 N8G23     29.89R WCI  29
TRENTON        CLOUDY    37  19  48 NW14G23   29.91R WCI  28
MILLVILLE      CLOUDY    38  23  55 NW10      29.95R WCI  31
ATLANTIC CITY  CLOUDY    39  20  46 NW18G29   29.93R WCI  30
WRIGHTSTOWN    CLOUDY    38  20  49 NW10G21   29.90R WCI  31
TOMS RIVER     CLOUDY    37  19  48 NW14G25   29.91R WCI  29
BELMAR         CLOUDY    37  18  44 NW15G25   29.89R WCI  28
$$

PAZ047>061-062-071-241200-
EASTERN PENNSYLVANIA

CITY           SKY/WX    TMP DP  RH WIND       PRES   REMARKS
PHILADELPHIA   CLOUDY    40  19  43 NW20      29.96R WCI  30
ALLENTOWN      MOCLDY    37  20  50 NW13G21   29.93R WCI  29
SCRANTON       CLOUDY    34  21  59 NW7       29.91R WCI  28
$$

CTZ002-004>006-009-010-012-RIZ004-006-007-MAZ004-011-015-241200-
SOUTHERN NEW ENGLAND
 IN CT

CITY           SKY/WX    TMP DP  RH WIND       PRES   REMARKS
BRADLEY INTL   MOSUNNY   37  21  52 NW10      29.80R WCI  30
HARTFORD       SUNNY     38  21  50 W9        29.82R WCI  31
DANBURY        CLOUDY    36  19  50 W9G23     29.84R WCI  29
WTRBRY/OXFORD  PTSUNNY   36  19  51 NW8       29.81R WCI  29
BRIDGEPORT     MOSUNNY   39  23  52 NW10      29.83R WCI  32
MERIDEN        CLOUDY    39  22  50 NW12      29.82R WCI  32
NEW HAVEN      MOSUNNY   39  23  52 NW8       29.82R WCI  33
CHESTER        FAIR      36  21  55 NW15      29.79R WCI  26
GROTON         SUNNY     39  22  50 NW10      29.79R WCI  32
WILLIMANTIC    MOSUNNY   36  21  54 NW7       29.79R WCI  30

 IN RI

CITY           SKY/WX    TMP DP  RH WIND       PRES   REMARKS
PROVIDENCE     PTSUNNY   38  23  55 W9        29.76R WCI  31
BLOCK ISLAND   MOSUNNY   39  23  52 NW10G20   29.78R WCI  32
WESTERLY       SUNNY     38  22  52 VRB6      29.79R WCI  33

 IN MA

CITY           SKY/WX    TMP DP  RH WIND       PRES   REMARKS
BOSTON         MOSUNNY   38  25  59 W16G24    29.72R WCI  29
WORCESTER      CLOUDY    33  21  61 NW15G29   29.71R WCI  23
WESTFIELD      SUNNY     36  20  52 NW13G25   29.79R WCI  27
PROVINCETOWN   PTSUNNY  N/A N/A N/A W18G26    29.70S
NANTUCKET      MOSUNNY   41  27  57 NW20G25   29.72R
$$

ANZ330-335-338-340-345-350-353-355-241200-
COASTAL MARINE OBSERVATIONS


STATION/POSITION TIME  SKY/WX   TEMP    WIND        PRES    VSBY  WAVE
                                AIR SEA DIR/SP/G                  HT/PER
                 (UTC)          (F)     (DEG/KT/KT) (MB)    (MI)  (FT/S)
NY HARB ENTRANCE 1050            40 45  310/ 23/ 27 1010.7          3/ 4
4S FIRE IS       1003               44                N/A           3/ 4
20S FIRE ISLAND  1050            40 43  320/ 19/ 23 1010.7          4/ 5
23SW MTP         NOT AVBL
HUDSON CANYON    NOT AVBL
EXECUTION ROCKS  NOT AVBL
WESTERN LI SOUND NOT AVBL
CENTRAL LI SOUND NOT AVBL
EASTERN LI SOUND 1000            40     310/ 16/ 21   N/A
ROBBINS REEF     1000            38     320/ 19/ 23 1010.1
$$


>>>>>>>>>>>>>>>>>>>>>>>>>>>> KEY <<<<<<<<<<<<<<<<<<<<<<<<<<<
>                                                          <
>     SKY/WX - SKY CONDITION/PRESENT WEATHER               <
>     TMP    - TEMPERATURE IN FAHRENHEIT                   <
>     DP     - DEWPOINT IN FAHRENHEIT                      <
>     RH     - RELATIVE HUMIDITY IN PERCENT                <
>     WIND   - DIRECTION AND SPEED IN MPH                  <
>     PRES   - MEAN SEA LEVEL PRESSURE IN INCHES OF HG     <
>     WCI    - WIND CHILL INDEX                            <
>     VSB    - VISIBILITY IN MILES                         <
>     HX     - HEAT INDEX                                  <
>     TC     - TEMPERATURE IN CELSIUS                      <
>     VRB    - VARIABLE WIND DIRECTION                     <
>                                                          <
>>>>>>>>>>>>>>>>>>>>>>>>>>>> KEY <<<<<<<<<<<<<<<<<<<<<<<<<<<




USA.gov is the U.S. government's official web portal to all federal, state and local government web resources and services.